Location: Unspecified
(0.0000°N, 0.0000°E)
Time: 09:00:40
(UTC+00:00)

A-11 Canister half - Pass Details

Date: 21 June 2024
Orbit: 1515 x 1684 km, 47.2° (Epoch: 23 July)

Event Time Altitude Azimuth Distance (km) Brightness Sun altitude
Rises 02:12:37 0° 330° (NNW) 4,718 11.6 -50.6°
Enters shadow 02:14:19 - 332° (NNW) 4,179 11.3 -50.2°
Exits shadow 02:31:04 22° 119° (ESE) 2,852 10.5 -46.9°
Drops below altitude 10° 02:33:49 10° 126° (SE) 3,672 11.1 -46.3°
Sets 02:36:55 0° 130° (SE) 4,658 11.7 -45.7°
